Weather History for Butte, MT

Change the Weather History Date:

Friday, November 16, 2012

  Actual Average Record
Temperature  
Mean Temperature 22 °F 28 °F  
Max Temperature 34 °F 39 °F 61 °F (1999)
Min Temperature 9 °F 16 °F -41 °F (1959)
Degree Days  
Heating Degree Days 43 38  
Month to date heating degree days 577 537  
Since 1 July heating degree days 1763 1908  
Cooling Degree Days 0 0  
Month to date cooling degree days 0 0  
Year to date cooling degree days 121 81  
Moisture  
Dew Point 22 °F    
Average Humidity 85    
Maximum Humidity 100    
Minimum Humidity 69    
Precipitation  
Precipitation 0.06 in 0.02 in 0.16 in (1994)
Month to date precipitation 0.69 0.32  
Year to date precipitation 8.48 11.98  
Sea Level Pressure  
Sea Level Pressure 30.10 in    
Wind  
Wind Speed 1 mph (SSE)    
Max Wind Speed 9 mph    
Max Gust Speed 10 mph    
Visibility 6 miles    
Events Fog , Rain    
T = Trace of Precipitation, MM = Missing Value Source: NWS Daily Summary

Daily Weather History Graph

Daily Weather History Graph

Search for Another Location

Airport:

Trip Planner

Search our weather history database for the weather conditions in past years. The results will help you decide how hot, cold, wet, or windy it might be!

Date:

Astronomy

Nov. 16, 2012 Rise Set
Actual Time 7:32 AM MST 4:56 PM MST
Civil Twilight 6:59 AM MST 5:29 PM MST
Nautical Twilight 6:23 AM MST 6:05 PM MST
Astronomical Twilight 5:48 AM MST 6:40 PM MST
Moon 10:33 AM MST (11/16) 7:58 PM MST (11/16)
Length of Visible Light 10h 29m
Length of Day
9h 24m
Waxing Crescent, 12% of the Moon is Illuminated
Nov 16
Waxing Crescent
Nov 20
First Quarter
Nov 28
Full
Dec 6
Last Quarter
Dec 13
New

Hourly Weather History & Observations

Time (MST) Temp. Windchill Dew Point Humidity Pressure Visibility Wind Dir Wind Speed Gust Speed Precip Events Conditions
12:53 AM 12.0 °F - 8.1 °F 84% 30.22 in 10.0 mi Calm Calm - N/A   Clear
1:53 AM 12.9 °F - 10.0 °F 88% 30.18 in 10.0 mi Calm Calm - N/A   Clear
2:53 AM 16.0 °F - 12.9 °F 88% 30.17 in 10.0 mi Calm Calm - N/A   Clear
3:53 AM 17.1 °F - 12.9 °F 84% 30.15 in 10.0 mi Calm Calm - N/A   Clear
4:53 AM 15.1 °F 9.4 °F 12.0 °F 88% 30.16 in 9.0 mi South 3.5 mph - N/A   Partly Cloudy
5:53 AM 16.0 °F - 12.0 °F 84% 30.17 in 10.0 mi Calm Calm - N/A   Clear
6:53 AM 14.0 °F 6.5 °F 10.9 °F 88% 30.22 in 10.0 mi WSW 4.6 mph - N/A   Partly Cloudy
7:51 AM 15.8 °F 10.2 °F 12.2 °F 86% 30.01 in 1.2 mi Variable 3.5 mph - N/A   Mostly Cloudy
7:53 AM 15.1 °F - 12.0 °F 88% 30.22 in 2.0 mi Calm Calm - N/A   Mostly Cloudy
8:00 AM 15.8 °F 10.2 °F 12.2 °F 86% 30.02 in 10.0 mi NNE 3.5 mph - N/A   Overcast
10:53 AM 26.1 °F - 21.0 °F 81% 30.19 in 10.0 mi Calm Calm - N/A   Overcast
11:53 AM 28.9 °F - 21.9 °F 75% 30.17 in 10.0 mi Calm Calm - N/A   Overcast
12:53 PM 33.1 °F - 24.1 °F 70% 30.13 in 9.0 mi Calm Calm - N/A   Overcast
1:53 PM 32.0 °F 28.7 °F 25.0 °F 75% 30.13 in 10.0 mi South 3.5 mph - 0.00 in   Overcast
2:53 PM 34.0 °F 31.0 °F 27.0 °F 75% 30.10 in 9.0 mi Variable 3.5 mph - 0.00 in Rain Light Rain
3:35 PM 33.8 °F - 28.4 °F 81% 29.98 in 5.0 mi Calm Calm - 0.01 in Rain Light Rain
3:53 PM 34.0 °F - 28.9 °F 82% 30.11 in 7.0 mi Calm Calm - 0.01 in Rain Light Rain
4:25 PM 33.8 °F - 30.2 °F 87% 29.98 in 4.0 mi Calm Calm - N/A   Overcast
4:34 PM 33.8 °F - 30.2 °F 87% 29.98 in 4.0 mi Calm Calm - N/A   Overcast
4:53 PM 33.1 °F 30.0 °F 30.9 °F 92% 30.11 in 3.0 mi ESE 3.5 mph - 0.00 in Rain Light Rain
5:06 PM 33.8 °F - 30.2 °F 87% 29.98 in 4.0 mi Calm Calm - 0.01 in Rain Light Rain
5:38 PM 33.8 °F 29.6 °F 30.2 °F 87% 29.98 in 2.5 mi SSE 4.6 mph - 0.03 in Rain Rain
5:53 PM 33.1 °F 26.1 °F 30.9 °F 92% 30.13 in 3.0 mi ESE 8.1 mph - 0.05 in Rain Light Rain
6:53 PM 33.1 °F - 32.0 °F 96% 30.14 in 6.0 mi Calm Calm - 0.00 in   Overcast
7:53 PM 30.9 °F - 30.0 °F 96% 30.14 in 4.0 mi Calm Calm - N/A   Mostly Cloudy
8:53 PM 28.9 °F - 28.9 °F 100% 30.15 in 9.0 mi Calm Calm - N/A   Scattered Clouds
9:53 PM 28.0 °F - 27.0 °F 96% 30.02 in 2.0 mi Calm Calm - N/A   Partly Cloudy
10:17 PM 26.6 °F 22.6 °F 24.8 °F 93% 30.02 in 1.8 mi SE 3.5 mph - N/A   Partly Cloudy
10:28 PM 24.8 °F 17.9 °F 23.0 °F 93% 30.02 in 0.2 mi SE 5.8 mph - N/A Fog Light Freezing Fog
10:43 PM 24.8 °F - 23.0 °F 93% 30.02 in 0.2 mi Calm Calm - N/A Fog Light Freezing Fog
10:53 PM 24.1 °F - 23.0 °F 96% 30.16 in 0.2 mi Calm Calm - N/A Fog Light Freezing Fog
11:53 PM 25.0 °F - 24.1 °F 96% 30.15 in 0.2 mi Calm Calm - N/A Fog Light Freezing Fog